DELTA 1 DEB

Satellite information

Favourite Embed

Satellite Type and Status

DEBRISIN ORBIT

Key statistics

Satellite DELTA 1 DEB at a glance.

Uptime

17451

Days in orbit

Revolutions

≈ 14.3

Per day

Orbit

SSO

Sun Synchronous Orbit

Inclination

99.1

Latest

Satellite identification and parameters

Extended collection of information and parameters for DELTA 1 DEB.

Object identification

Identified? True

Debris? True

Object name: DELTA 1 DEB

International designator: 1978-026GK

Object number (NORAD): 14910

Object ID (CCSDS): 14910

Country: UNITED STATES OF AMERICA (US)

Current information (Y/N): Y

RCS size: SMALL

Orbital parameters

Period: 100.959 minutes

Inclination: 99.0942 deg

SMA: 7182.174 km

Apoapsis: 815.187 km

Periapsis: 792.892 km

RAAN: 313.8101 deg

Eccentricy: 0.00155215

Argument of periapsis: 330.7997 deg

Mean anomaly: 157.9942 deg

Mean motion: 14.26326161 rev/day

Mean motion (dot): 0.00002708 rev/day2

B* drag term: 0.0011457396 1/REarth

Two-line elements (TLE)

Creation date: Dec. 12, 2025, 10:14 a.m.

Reference frame: TEME

Reference center: EARTH

Epoch: Dec. 12, 2025, 4:08 a.m. UTC

TLE line 0: 0 DELTA 1 DEB

TLE line 1: 1 14910U 78026GK 25346.17250499 .00002708 00000-0 11457-2 0 9992

TLE line 2: 2 14910 99.0942 313.8101 0015522 330.7997 157.9942 14.26326161164954

Live tracking on map

Real-time ground track for satellite DELTA 1 DEB.

In-orbit conjunctions

A list of the most updated potential collisions computed for object DELTA 1 DEB.

Target Orbit TCA Probability of collision Miss distance Type
CZ-2D R/B LEO 2024-12-08 13:54:20 0.0002472002 329.0 (m) ROCKET BODY
CZ-6A DEB LEO 2024-11-18 07:12:55 0.0001464664 279.0 (m) DEBRIS

Associated space launch

Earth observation satellite

DELTA 1 DEB was lifted into orbit during the mission ‘Delta 2910 | Landsat 3’, on board a Delta 2910 space rocket.

The launch took place on March 5, 1978, 5:54 p.m. from Space Launch Complex 2W.

For more information about the launch, click the button.

Launch to space Delta 2910 | Landsat 3
Delta 2910 | Landsat 3

Agency: N/A

Status: Launch Successful

Launch date: March 5, 1978, 5:54 p.m. UTC

Rocket: Delta 2910

Launch pad: Space Launch Complex 2W

Location: Vandenberg SFB, CA, USA

...

Latest news about this satellite

There are no fresh news available about this satellite. Check back as we update our databases every day.


Newsletter sign-up

Weekly statistics, charts and insights to help you stay on top of the space industry.